SL-16 DEB

Satellite information

Favourite Embed

Satellite Type and Status

DEBRISIN ORBIT

Key statistics

Satellite SL-16 DEB at a glance.

Uptime

11943

Days in orbit

Revolutions

≈ 14.1

Per day

Orbit

LEO

Low Earth Orbit

Inclination

70.8

Latest

Satellite identification and parameters

Extended collection of information and parameters for SL-16 DEB.

Object identification

Identified? True

Debris? True

Object name: SL-16 DEB

International designator: 1992-093GD

Object number (NORAD): 22494

Object ID (CCSDS): 22494

Country: COMMONWEALTH OF INDEPENDENT STATES (CIS)

Current information (Y/N): Y

RCS size: SMALL

Orbital parameters

Period: 102.098 minutes

Inclination: 70.8151 deg

SMA: 7236.131 km

Apoapsis: 966.612 km

Periapsis: 749.379 km

RAAN: 329.2706 deg

Eccentricy: 0.01501026

Argument of periapsis: 130.3853 deg

Mean anomaly: 348.9922 deg

Mean motion: 14.10402845 rev/day

Mean motion (dot): 0.00009289 rev/day2

B* drag term: 0.0047218111 1/REarth

Two-line elements (TLE)

Creation date: Sept. 4, 2025, 4:29 a.m.

Reference frame: TEME

Reference center: EARTH

Epoch: Sept. 3, 2025, 3:43 p.m. UTC

TLE line 0: 0 SL-16 DEB

TLE line 1: 1 22494U 92093GD 25246.65500395 .00009289 00000-0 47218-2 0 9998

TLE line 2: 2 22494 70.8151 329.2706 0150103 130.3853 348.9922 14.10402845648764

Live tracking on map

Real-time ground track for satellite SL-16 DEB.

In-orbit conjunctions

A list of the most updated potential collisions computed for object SL-16 DEB.

Target Orbit TCA Probability of collision Miss distance Type
PSLV R/B SSO 2025-03-01 08:59:02 0.0002527057 102.0 (m) ROCKET BODY

Associated space launch

Second generation ELING satellite

SL-16 DEB was lifted into orbit during the mission ‘Zenit-2 | Tselina-2 12’, on board a Zenit-2 space rocket.

The launch took place on Dec. 25, 1992, 5:56 a.m. from 45/1.

For more information about the launch, click the button.

Launch to space Zenit-2 | Tselina-2 12
Zenit-2 | Tselina-2 12

Agency: N/A

Status: Launch Successful

Launch date: Dec. 25, 1992, 5:56 a.m. UTC

Rocket: Zenit-2

Launch pad: 45/1

Location: Baikonur Cosmodrome, Republic of Kazakhstan

...

Latest news about this satellite

There are no fresh news available about this satellite. Check back as we update our databases every day.


Newsletter sign-up

Weekly statistics, charts and insights to help you stay on top of the space industry.